This is the latest recevied weather packets stored in our database for station/object KN6WGU. If no packets are shown the sender has not sent any weather packets the latest 10 day(s).
| Time | Temp. | Humidity | Pressure | Rain* | Wind** | Luminosity | Snow |
|---|---|---|---|---|---|---|---|
| 1788611342 | 22.22° C | 99% | 1007.1 hPa | 0 mm | - | 62 W/m² | - |
| 1788611041 | 22.22° C | 99% | 1006.8 hPa | 0 mm | - | 58 W/m² | - |
| 1788610737 | 22.22° C | 99% | 1007 hPa | 0 mm | - | 55 W/m² | - |
| 1788610433 | 22.22° C | 99% | 1006.8 hPa | 0 mm | - | 54 W/m² | - |
| 1788610131 | 22.22° C | 99% | 1006.9 hPa | 0 mm | - | 48 W/m² | - |
| 1788609826 | 21.67° C | 99% | 1007.1 hPa | 0 mm | - | 36 W/m² | - |
| 1788609521 | 21.67° C | 99% | 1007.1 hPa | 0 mm | - | 19 W/m² | - |
| 1788609220 | 21.67° C | 99% | 1007.1 hPa | 0 mm | - | 11 W/m² | - |
| 1788608915 | 21.67° C | 99% | 1007 hPa | 0 mm | - | 13 W/m² | - |
| 1788608614 | 21.67° C | 99% | 1006.9 hPa | 0 mm | - | 16 W/m² | - |
| 1788608313 | 21.67° C | 99% | 1006.8 hPa | 0 mm | - | 16 W/m² | - |
| 1788608009 | 21.67° C | 99% | 1006.6 hPa | 0 mm | - | 16 W/m² | - |
| 1788607705 | 21.67° C | 99% | 1006.8 hPa | 0 mm | - | 10 W/m² | - |
| 1788607399 | 21.67° C | 99% | 1006.8 hPa | 0 mm | - | 7 W/m² | - |
| 1788607095 | 21.67° C | 99% | 1006.9 hPa | 0 mm | - | 4 W/m² | - |
| 1788606789 | 21.67° C | 99% | 1007.1 hPa | 0 mm | - | 2 W/m² | - |
| 1788606489 | 21.67° C | 99% | 1006.9 hPa | 0 mm | - | 2 W/m² | - |
| 1788606188 | 21.67° C | 99% | 1006.9 hPa | 0 mm | - | 1 W/m² | - |
| 1788605884 | 21.67° C | 99% | 1006.8 hPa | 0 mm | - | 1 W/m² | - |
| 1788605582 | 21.67° C | 99% | 1007.1 hPa | 0 mm | - | 0 W/m² | - |
| 1788605277 | 21.67° C | 99% | 1007 hPa | 0 mm | - | 0 W/m² | - |
| 1788604974 | 21.11° C | 99% | 1007.1 hPa | 0 mm | - | 0 W/m² | - |
| 1788604673 | 21.11° C | 99% | 1007.3 hPa | 0 mm | - | 0 W/m² | - |
| 1788604382 | 21.11° C | 99% | 1007.3 hPa | 0 mm | - | 0 W/m² | - |
| 1788604064 | 21.11° C | 99% | 1007.2 hPa | 0 mm | - | 0 W/m² | - |
* Rain latest hour (hover to see other rain measurements)
** Current wind speed in m/s (hover to see current wind gust speed)